Content
SEND FEEDBACK

Daily
Averages
Monthly
Summary
Mauritania

NOUADHIBOU, MAURITANIA


Home > Africa > Mauritania
Elevation: 10 feet     Latitude: 20 56N     Longitude: 017 02W

WEATHER
 
SELECT A DAY
Number of Records: 117,625;   Date Range: 7/1/96 - 7/27/14
 
SHARE

PRINT THIS DATA

[ ← Previous Day ]
WEATHER ALMANAC - APRIL 26, 2013
[ Next Day → ]
[ °C ]   °F
Weather ElementAverageHighLow
Temperature81.2 °F98.6 °F (3:00 pm)69.8 °F (12:00 am)
Dewpoint55.2 °F62.6 °F (12:00 am)39 °F (3:00 pm)
Humidity43.2 %78 % (12:00 am)7 % (3:00 pm)
Barometer29.90 in29.95 in (12:00 am)29.86 in (4:00 am)
Wind Speed9.8 mph13.8 mph (3:00 pm)
Weather ElementAverage
Visibility5 mi
Wind DirectionWSW (257.3 °)

Weather ElementTotal
Precipitation---
Cooling Degree Days19.2 (Base 65)
Growing Degree Days34.2 (Base 50)
Averaged from 30 records on April 26, 2013
WEATHER CONDITIONS BREAKOUT
WIND DIRECTION BREAKOUT
WEATHER BY HOUR - APRIL 26, 2013
[ °C ]   °F
Local TimeTemperatureDewpointHumidityBarometerVisibilityWind DirectionWind SpeedGust SpeedPrecipitationEventsConditions
12:00 AM69.8 °F62.6 °F78 %29.95 in5.0 miNW (320°)10.4 mph
1:00 AM69.8 °F62.6 °F78 %29.92 in5.0 miNW (310°)10.4 mph
2:00 AM71.6 °F60.8 °F69 %29.89 in5.0 miNW (320°)10.4 mph
3:00 AM72.0 °F61.0 °F60 %29.90 in5.0 miNNW (330°)10.4 mphMostly Cloudy
3:00 AM71.6 °F60.8 °F69 %29.89 in5.0 miNNW (330°)10.4 mph
4:00 AM71.6 °F59.0 °F64 %29.86 in5.0 miNNW (330°)9.2 mph
5:00 AM73.4 °F59.0 °F61 %29.89 in5.0 miNNW (340°)9.2 mph
6:00 AM71.6 °F57.2 °F60 %29.89 in5.0 miNorth (350°)9.2 mph
6:00 AM72.0 °F59.0 °F54 %29.91 in5.0 miNorth (350°)9.2 mphPartly Cloudy
7:00 AM73.4 °F57.2 °F57 %29.89 in5.0 miNorth (360°)11.5 mph
8:00 AM77.0 °F55.4 °F47 %29.92 in5.0 miNorth (360°)10.4 mph
9:00 AM80.0 °F51.0 °F26 %29.95 in5.0 miNorth (10°)9.2 mphPartly Cloudy
9:00 AM80.6 °F51.8 °F37 %29.92 in5.0 miNorth (10°)9.2 mph
11:00 AM89.6 °F48.2 °F24 %29.95 in5.0 miNE (40°)8.1 mph
12:00 PM93.2 °F51.8 °F24 %29.92 in5.0 miESE (120°)4.6 mph
12:00 PM94.0 °F47.0 °F12 %29.95 in5.0 miEast (100°)5.8 mph
1:00 PM93.2 °F50.0 °F23 %29.92 in5.0 miSE (140°)8.1 mph
2:00 PM96.8 °F48.2 °F19 %29.89 in5.0 miSSE (150°)11.5 mph
3:00 PM98.0 °F39.0 °F7 %29.88 in5.0 miSSE (160°)13.8 mph
3:00 PM98.6 °F41.0 °F14 %29.86 in5.0 miSSE (160°)12.7 mph
4:00 PM87.8 °F60.8 °F40 %29.86 in5.0 miWest (280°)11.5 mphClear
5:00 PM86.0 °F59.0 °F40 %29.86 in5.0 miWNW (300°)12.7 mph
6:00 PM84.2 °F59.0 °F42 %29.86 in5.0 miWNW (300°)9.2 mph
6:00 PM85.0 °F58.0 °F30 %29.87 in5.0 miWNW (300°)10.4 mph
7:00 PM80.6 °F60.8 °F51 %29.86 in5.0 miWNW (300°)11.5 mph
8:00 PM77.0 °F59.0 °F54 %29.86 in5.0 miNW (320°)9.2 mph
9:00 PM79.0 °F56.0 °F34 %29.91 in5.0 miNNW (330°)8.1 mph
9:00 PM78.8 °F55.4 °F44 %29.89 in5.0 miNNW (330°)9.2 mph
10:00 PM82.4 °F50.0 °F32 %29.89 in5.0 miNNW (340°)9.2 mph
11:00 PM77.0 °F55.4 °F47 %29.92 in5.0 miNNW (330°)9.2 mph
Hourly data recorded from GQPP, located miles away from Nouadhibou, Mauritania







STORIES FROM OUR PARTNERS